Time,TemperatureF,DewpointF,PressureIn,WindDirection,WindDirectionDegrees,WindSpeedMPH,WindSpeedGustMPH,Humidity,HourlyPrecipIn,Conditions,Clouds,dailyrainin,SoftwareType,DateUTC
2013-07-27 00:02:00,54.0,42.0,30.13,WNW,297,1.0,5.0,63,0.00,,,0.00,,2013-07-27 05:02:00,
2013-07-27 00:12:00,54.0,42.0,30.13,WNW,290,1.0,3.0,64,0.00,,,0.00,,2013-07-27 05:12:00,
2013-07-27 00:22:00,53.0,42.0,30.14,WNW,286,0.0,4.0,65,0.00,,,0.00,,2013-07-27 05:22:00,
2013-07-27 00:32:00,53.0,42.0,30.14,WNW,286,0.0,4.0,65,0.00,,,0.00,,2013-07-27 05:32:00,
2013-07-27 00:43:00,53.0,42.0,30.14,WNW,288,1.0,4.0,66,0.00,,,0.00,,2013-07-27 05:43:00,
2013-07-27 01:02:00,52.0,42.0,30.14,West,276,2.0,4.0,68,0.00,,,0.00,,2013-07-27 06:02:00,
2013-07-27 01:12:00,52.0,42.0,30.14,West,261,2.0,6.0,68,0.00,,,0.00,,2013-07-27 06:12:00,
2013-07-27 01:22:00,51.0,41.0,30.13,West,269,2.0,4.0,69,0.00,,,0.00,,2013-07-27 06:22:00,
2013-07-27 01:33:00,51.0,41.0,30.13,West,269,2.0,4.0,69,0.00,,,0.00,,2013-07-27 06:33:00,
2013-07-27 01:43:00,51.0,42.0,30.13,West,281,1.0,4.0,71,0.00,,,0.00,,2013-07-27 06:43:00,
2013-07-27 01:52:00,51.0,42.0,30.14,NW,311,2.0,4.0,71,0.00,,,0.00,,2013-07-27 06:52:00,
2013-07-27 02:02:00,51.0,42.0,30.14,NW,311,2.0,4.0,71,0.00,,,0.00,,2013-07-27 07:02:00,
2013-07-27 02:12:00,52.0,42.0,30.14,West,263,2.0,5.0,69,0.00,,,0.00,,2013-07-27 07:12:00,
2013-07-27 02:22:00,52.0,42.0,30.14,West,264,1.0,4.0,68,0.00,,,0.00,,2013-07-27 07:22:00,
2013-07-27 02:33:00,52.0,42.0,30.14,West,264,1.0,4.0,68,0.00,,,0.00,,2013-07-27 07:33:00,
2013-07-27 02:43:00,52.0,42.0,30.14,WNW,295,0.0,5.0,68,0.00,,,0.00,,2013-07-27 07:43:00,
2013-07-27 02:52:00,52.0,42.0,30.13,NW,320,2.0,6.0,68,0.00,,,0.00,,2013-07-27 07:52:00,
2013-07-27 03:02:00,52.0,42.0,30.13,NW,320,2.0,6.0,68,0.00,,,0.00,,2013-07-27 08:02:00,
2013-07-27 03:12:00,52.0,42.0,30.14,WNW,303,2.0,5.0,69,0.00,,,0.00,,2013-07-27 08:12:00,
2013-07-27 03:22:00,52.0,43.0,30.14,West,269,1.0,6.0,70,0.00,,,0.00,,2013-07-27 08:22:00,
2013-07-27 03:32:00,52.0,43.0,30.14,West,269,1.0,6.0,70,0.00,,,0.00,,2013-07-27 08:32:00,
2013-07-27 03:43:00,52.0,43.0,30.14,WNW,289,2.0,7.0,70,0.00,,,0.00,,2013-07-27 08:43:00,
2013-07-27 03:53:00,52.0,43.0,30.14,WNW,298,2.0,6.0,70,0.00,,,0.00,,2013-07-27 08:53:00,
2013-07-27 04:02:00,52.0,43.0,30.14,WNW,298,2.0,6.0,70,0.00,,,0.00,,2013-07-27 09:02:00,
2013-07-27 04:12:00,51.0,42.0,30.14,NNW,342,2.0,8.0,71,0.00,,,0.00,,2013-07-27 09:12:00,
2013-07-27 04:22:00,50.0,41.0,30.15,NNW,342,1.0,6.0,72,0.00,,,0.00,,2013-07-27 09:22:00,
2013-07-27 04:33:00,50.0,41.0,30.15,NNW,342,1.0,6.0,72,0.00,,,0.00,,2013-07-27 09:33:00,
2013-07-27 04:44:00,50.0,41.0,30.15,WNW,284,1.0,4.0,72,0.00,,,0.00,,2013-07-27 09:44:00,
2013-07-27 04:52:00,49.0,41.0,30.15,WNW,302,1.0,4.0,74,0.00,,,0.00,,2013-07-27 09:52:00,
2013-07-27 05:02:00,49.0,41.0,30.15,WNW,302,1.0,4.0,74,0.00,,,0.00,,2013-07-27 10:02:00,
2013-07-27 05:12:00,48.0,40.0,30.15,West,261,1.0,5.0,74,0.00,,,0.00,,2013-07-27 10:12:00,
2013-07-27 05:22:00,48.0,40.0,30.15,NW,321,0.0,4.0,75,0.00,,,0.00,,2013-07-27 10:22:00,
2013-07-27 05:32:00,48.0,40.0,30.15,NW,321,0.0,4.0,75,0.00,,,0.00,,2013-07-27 10:32:00,
2013-07-27 05:43:00,48.0,40.0,30.15,WNW,298,1.0,5.0,75,0.00,,,0.00,,2013-07-27 10:43:00,
2013-07-27 05:52:00,48.0,40.0,30.16,WNW,299,1.0,5.0,75,0.00,,,0.00,,2013-07-27 10:52:00,
2013-07-27 06:02:00,48.0,40.0,30.16,WNW,299,1.0,5.0,75,0.00,,,0.00,,2013-07-27 11:02:00,
2013-07-27 06:12:00,47.0,39.0,30.16,West,281,1.0,4.0,75,0.00,,,0.00,,2013-07-27 11:12:00,
2013-07-27 06:22:00,47.0,40.0,30.16,West,273,1.0,5.0,76,0.00,,,0.00,,2013-07-27 11:22:00,
2013-07-27 06:32:00,47.0,40.0,30.16,West,273,1.0,5.0,76,0.00,,,0.00,,2013-07-27 11:32:00,
2013-07-27 06:44:00,47.0,40.0,30.16,West,259,1.0,5.0,76,0.00,,,0.00,,2013-07-27 11:44:00,
2013-07-27 06:52:00,47.0,40.0,30.16,WNW,285,1.0,5.0,76,0.00,,,0.00,,2013-07-27 11:52:00,
2013-07-27 07:02:00,47.0,40.0,30.16,WNW,285,1.0,5.0,76,0.00,,,0.00,,2013-07-27 12:02:00,
2013-07-27 07:12:00,48.0,40.0,30.16,NNW,333,1.0,5.0,75,0.00,,,0.00,,2013-07-27 12:12:00,
2013-07-27 07:22:00,49.0,41.0,30.16,WNW,290,1.0,6.0,73,0.00,,,0.00,,2013-07-27 12:22:00,
2013-07-27 07:33:00,49.0,41.0,30.16,WNW,290,1.0,6.0,73,0.00,,,0.00,,2013-07-27 12:33:00,
2013-07-27 07:43:00,49.0,40.0,30.16,WSW,254,2.0,7.0,72,0.00,,,0.00,,2013-07-27 12:43:00,
2013-07-27 07:52:00,49.0,41.0,30.16,West,275,1.0,4.0,73,0.00,,,0.00,,2013-07-27 12:52:00,
2013-07-27 08:02:00,49.0,41.0,30.16,West,275,1.0,4.0,73,0.00,,,0.00,,2013-07-27 13:02:00,
2013-07-27 08:12:00,51.0,41.0,30.16,NNW,348,3.0,8.0,69,0.00,,,0.00,,2013-07-27 13:12:00,
2013-07-27 08:22:00,52.0,41.0,30.16,NNW,338,1.0,8.0,66,0.00,,,0.00,,2013-07-27 13:22:00,
2013-07-27 08:32:00,52.0,41.0,30.16,NNW,338,1.0,8.0,66,0.00,,,0.00,,2013-07-27 13:32:00,
2013-07-27 08:44:00,53.0,41.0,30.16,WNW,300,1.0,7.0,63,0.00,,,0.00,,2013-07-27 13:44:00,
2013-07-27 08:53:00,54.0,40.0,30.16,NW,304,3.0,9.0,60,0.00,,,0.00,,2013-07-27 13:53:00,
2013-07-27 09:02:00,54.0,40.0,30.16,NW,304,3.0,9.0,60,0.00,,,0.00,,2013-07-27 14:02:00,
2013-07-27 09:12:00,55.0,41.0,30.16,WNW,296,2.0,7.0,58,0.00,,,0.00,,2013-07-27 14:12:00,
2013-07-27 10:02:00,58.0,39.0,30.14,NW,304,3.0,12.0,49,0.00,,,0.00,,2013-07-27 15:02:00,
2013-07-27 10:12:00,59.0,40.0,30.14,WNW,284,2.0,9.0,50,0.00,,,0.00,,2013-07-27 15:12:00,
2013-07-27 10:22:00,59.0,40.0,30.13,NNW,333,5.0,12.0,50,0.00,,,0.00,,2013-07-27 15:22:00,
2013-07-27 10:33:00,59.0,40.0,30.13,NNW,333,5.0,12.0,50,0.00,,,0.00,,2013-07-27 15:33:00,
2013-07-27 11:02:00,61.0,41.0,30.12,WSW,257,3.0,13.0,47,0.00,,,0.00,,2013-07-27 16:02:00,
2013-07-27 11:22:00,62.0,47.0,30.11,NW,305,5.0,11.0,57,0.00,,,0.00,,2013-07-27 16:22:00,
2013-07-27 11:33:00,62.0,47.0,30.11,NW,305,5.0,11.0,57,0.00,,,0.00,,2013-07-27 16:33:00,
2013-07-27 11:43:00,63.0,47.0,30.11,West,269,6.0,13.0,55,0.00,,,0.00,,2013-07-27 16:43:00,
2013-07-27 11:53:00,63.0,45.0,30.10,NNW,336,2.0,16.0,52,0.00,,,0.00,,2013-07-27 16:53:00,
2013-07-27 12:02:00,63.0,45.0,30.10,NNW,336,2.0,16.0,52,0.00,,,0.00,,2013-07-27 17:02:00,
2013-07-27 12:22:00,63.0,45.0,30.10,North,355,5.0,16.0,51,0.00,,,0.00,,2013-07-27 17:22:00,
2013-07-27 12:32:00,63.0,45.0,30.10,North,355,5.0,16.0,51,0.00,,,0.00,,2013-07-27 17:32:00,
2013-07-27 12:43:00,64.0,47.0,30.10,WNW,286,2.0,8.0,54,0.00,,,0.00,,2013-07-27 17:43:00,
2013-07-27 12:53:00,63.0,46.0,30.09,WNW,283,5.0,13.0,54,0.00,,,0.00,,2013-07-27 17:53:00,
2013-07-27 13:02:00,63.0,46.0,30.09,WNW,283,5.0,13.0,54,0.00,,,0.00,,2013-07-27 18:02:00,
2013-07-27 13:12:00,64.0,45.0,30.09,NW,315,5.0,12.0,51,0.00,,,0.00,,2013-07-27 18:12:00,
2013-07-27 13:22:00,64.0,46.0,30.08,West,267,3.0,14.0,52,0.00,,,0.00,,2013-07-27 18:22:00,
2013-07-27 13:32:00,64.0,46.0,30.08,West,267,3.0,14.0,52,0.00,,,0.00,,2013-07-27 18:32:00,
2013-07-27 13:42:00,65.0,46.0,30.08,NNW,341,3.0,11.0,51,0.00,,,0.00,,2013-07-27 18:42:00,
2013-07-27 13:52:00,66.0,48.0,30.07,NW,304,2.0,14.0,52,0.00,,,0.00,,2013-07-27 18:52:00,
2013-07-27 14:02:00,66.0,48.0,30.07,NW,304,2.0,14.0,52,0.00,,,0.00,,2013-07-27 19:02:00,
2013-07-27 14:12:00,65.0,46.0,30.07,NNE,15,4.0,13.0,51,0.00,,,0.00,,2013-07-27 19:12:00,
2013-07-27 14:22:00,64.0,45.0,30.06,North,5,3.0,11.0,51,0.00,,,0.00,,2013-07-27 19:22:00,
2013-07-27 14:32:00,64.0,45.0,30.06,North,5,3.0,11.0,51,0.00,,,0.00,,2013-07-27 19:32:00,
2013-07-27 14:43:00,66.0,48.0,30.06,NNW,331,4.0,10.0,52,0.00,,,0.00,,2013-07-27 19:43:00,
2013-07-27 14:52:00,67.0,48.0,30.06,West,267,4.0,8.0,51,0.00,,,0.00,,2013-07-27 19:52:00,
2013-07-27 15:02:00,67.0,48.0,30.06,West,267,4.0,8.0,51,0.00,,,0.00,,2013-07-27 20:02:00,
2013-07-27 15:12:00,67.0,47.0,30.05,SSW,202,3.0,10.0,48,0.00,,,0.00,,2013-07-27 20:12:00,
2013-07-27 15:22:00,67.0,47.0,30.05,WSW,247,5.0,13.0,49,0.00,,,0.00,,2013-07-27 20:22:00,
2013-07-27 15:32:00,67.0,47.0,30.05,WSW,247,5.0,13.0,49,0.00,,,0.00,,2013-07-27 20:32:00,
2013-07-27 15:43:00,68.0,47.0,30.05,West,268,7.0,14.0,47,0.00,,,0.00,,2013-07-27 20:43:00,
2013-07-27 15:52:00,68.0,48.0,30.04,NNW,348,3.0,16.0,48,0.00,,,0.00,,2013-07-27 20:52:00,
2013-07-27 16:03:00,68.0,48.0,30.04,NNW,348,3.0,16.0,48,0.00,,,0.00,,2013-07-27 21:03:00,
2013-07-27 16:12:00,68.0,47.0,30.03,SSE,155,3.0,19.0,47,0.00,,,0.00,,2013-07-27 21:12:00,
2013-07-27 16:22:00,69.0,47.0,30.03,North,5,5.0,15.0,46,0.00,,,0.00,,2013-07-27 21:22:00,
2013-07-27 16:33:00,69.0,47.0,30.03,North,5,5.0,15.0,46,0.00,,,0.00,,2013-07-27 21:33:00,
2013-07-27 16:42:00,69.0,46.0,30.03,WSW,252,4.0,14.0,43,0.00,,,0.00,,2013-07-27 21:42:00,
2013-07-27 16:52:00,69.0,45.0,30.03,North,355,5.0,13.0,42,0.00,,,0.00,,2013-07-27 21:52:00,
2013-07-27 17:02:00,69.0,45.0,30.03,North,355,5.0,13.0,42,0.00,,,0.00,,2013-07-27 22:02:00,
2013-07-27 17:12:00,69.0,46.0,30.02,NNW,333,5.0,14.0,44,0.00,,,0.00,,2013-07-27 22:12:00,
2013-07-27 17:22:00,68.0,45.0,30.02,WNW,296,5.0,16.0,44,0.00,,,0.00,,2013-07-27 22:22:00,
2013-07-27 17:32:00,68.0,45.0,30.02,WNW,296,5.0,16.0,44,0.00,,,0.00,,2013-07-27 22:32:00,
2013-07-27 17:43:00,68.0,45.0,30.02,NNW,333,7.0,12.0,43,0.00,,,0.00,,2013-07-27 22:43:00,
2013-07-27 17:53:00,68.0,45.0,30.02,North,355,4.0,10.0,44,0.00,,,0.00,,2013-07-27 22:53:00,
2013-07-27 18:02:00,68.0,45.0,30.02,North,355,4.0,10.0,44,0.00,,,0.00,,2013-07-27 23:02:00,
2013-07-27 18:12:00,68.0,45.0,30.02,West,281,3.0,15.0,43,0.00,,,0.00,,2013-07-27 23:12:00,
2013-07-27 18:22:00,67.0,46.0,30.02,NW,319,2.0,11.0,46,0.00,,,0.00,,2013-07-27 23:22:00,
2013-07-27 18:32:00,67.0,46.0,30.02,NW,319,2.0,11.0,46,0.00,,,0.00,,2013-07-27 23:32:00,
2013-07-27 18:44:00,68.0,45.0,30.01,NNW,336,7.0,14.0,44,0.00,,,0.00,,2013-07-27 23:44:00,
2013-07-27 18:52:00,68.0,46.0,30.01,West,278,2.0,12.0,46,0.00,,,0.00,,2013-07-27 23:52:00,
2013-07-27 19:02:00,68.0,46.0,30.01,West,278,2.0,12.0,46,0.00,,,0.00,,2013-07-28 00:02:00,
2013-07-27 19:12:00,67.0,44.0,30.01,WNW,290,4.0,13.0,44,0.00,,,0.00,,2013-07-28 00:12:00,
2013-07-27 19:22:00,67.0,45.0,30.01,NNE,33,5.0,10.0,45,0.00,,,0.00,,2013-07-28 00:22:00,
2013-07-27 19:32:00,67.0,45.0,30.01,NNE,33,5.0,10.0,45,0.00,,,0.00,,2013-07-28 00:32:00,
2013-07-27 19:44:00,67.0,45.0,30.01,NE,37,4.0,12.0,45,0.00,,,0.00,,2013-07-28 00:44:00,
2013-07-27 19:53:00,66.0,46.0,30.00,NNW,342,2.0,10.0,48,0.00,,,0.00,,2013-07-28 00:53:00,
2013-07-27 20:02:00,66.0,46.0,30.00,NNW,342,2.0,10.0,48,0.00,,,0.00,,2013-07-28 01:02:00,
2013-07-27 20:12:00,66.0,46.0,30.00,WNW,294,3.0,7.0,48,0.00,,,0.00,,2013-07-28 01:12:00,
2013-07-27 20:22:00,66.0,46.0,30.00,NNW,329,1.0,8.0,49,0.00,,,0.00,,2013-07-28 01:22:00,
2013-07-27 20:32:00,66.0,46.0,30.00,NNW,329,1.0,8.0,49,0.00,,,0.00,,2013-07-28 01:32:00,
2013-07-27 20:43:00,65.0,46.0,30.01,NW,324,2.0,7.0,51,0.00,,,0.00,,2013-07-28 01:43:00,
2013-07-27 20:53:00,63.0,47.0,30.01,NW,320,1.0,4.0,56,0.00,,,0.00,,2013-07-28 01:53:00,
2013-07-27 21:02:00,63.0,47.0,30.01,NW,320,1.0,4.0,56,0.00,,,0.00,,2013-07-28 02:02:00,
2013-07-27 21:12:00,62.0,47.0,30.01,NW,320,0.0,3.0,59,0.00,,,0.00,,2013-07-28 02:12:00,
2013-07-27 21:22:00,60.0,46.0,30.01,NW,312,0.0,2.0,59,0.00,,,0.00,,2013-07-28 02:22:00,
2013-07-27 21:32:00,60.0,46.0,30.01,NW,312,0.0,2.0,59,0.00,,,0.00,,2013-07-28 02:32:00,
2013-07-27 21:42:00,58.0,41.0,30.01,WNW,282,0.0,3.0,54,0.00,,,0.00,,2013-07-28 02:42:00,
2013-07-27 21:53:00,57.0,40.0,30.02,West,265,1.0,3.0,52,0.00,,,0.00,,2013-07-28 02:53:00,
2013-07-27 22:12:00,56.0,41.0,30.02,West,265,0.0,2.0,56,0.00,,,0.00,,2013-07-28 03:12:00,
2013-07-27 22:22:00,55.0,40.0,30.02,West,264,2.0,4.0,57,0.00,,,0.00,,2013-07-28 03:22:00,
2013-07-27 22:42:00,55.0,41.0,30.02,West,261,1.0,4.0,60,0.00,,,0.00,,2013-07-28 03:42:00,
2013-07-27 22:52:00,54.0,41.0,30.03,West,262,1.0,3.0,61,0.00,,,0.00,,2013-07-28 03:52:00,
2013-07-27 23:02:00,54.0,41.0,30.03,West,262,1.0,3.0,61,0.00,,,0.00,,2013-07-28 04:02:00,
2013-07-27 23:12:00,54.0,41.0,30.03,West,260,0.0,3.0,62,0.00,,,0.00,,2013-07-28 04:12:00,
2013-07-27 23:22:00,54.0,41.0,30.03,WSW,248,2.0,5.0,61,0.00,,,0.00,,2013-07-28 04:22:00,
2013-07-27 23:32:00,54.0,41.0,30.03,WSW,248,2.0,5.0,61,0.00,,,0.00,,2013-07-28 04:32:00,